Port Orchard, WA

1:23 PM PDT on September 30, 2016 (GMT -0700)
Bremerton National

Weather History for KPWT - November, 2012

Change the Weather History Date:

Friday, November 30, 2012

  Actual Average Record
Temperature  
Mean Temperature 47 °F -  
Max Temperature 50 °F 43 °F 55 °F (2002)
Min Temperature 44 °F 33 °F 23 °F (2014)
Degree Days  
Heating Degree Days 18    
Moisture  
Dew Point 44 °F    
Average Humidity 87    
Maximum Humidity 93    
Minimum Humidity 81    
Precipitation  
Precipitation 2.65 in - - ()
Sea Level Pressure  
Sea Level Pressure 29.44 in    
Wind  
Wind Speed 4 mph (South)    
Max Wind Speed 16 mph    
Max Gust Speed 23 mph    
Visibility 9 miles    
Events      
Averages and records for this station are not official NWS values.
T = Trace of Precipitation, MM = Missing Value Source: NWS Daily Summary

Daily Weather History Graph

Daily Weather History Graph

Search for Another Location

Airport or City:

Trip Planner

Search our weather history database for the weather conditions in past years. The results will help you decide how hot, cold, wet, or windy it might be!

Date:

Astronomy

Nov. 30, 2012 Rise Set
Actual Time 7:37 AM PST 4:22 PM PST
Civil Twilight 7:02 AM PST 4:57 PM PST
Nautical Twilight 6:23 AM PST 5:35 PM PST
Astronomical Twilight 5:46 AM PST 6:12 PM PST
Moon 6:23 PM PST 9:12 AM PST
Length of Visible Light 9h 54m
Length of Day
8h 44m
Waning Gibbous, 96% of the Moon is Illuminated
Nov 30
Waning Gibbous
Dec 6
Last Quarter
Dec 13
New
Dec 19
First Quarter
Dec 28
Full

Hourly Weather History & Observations

Time (PST) Temp. Windchill Dew Point Humidity Pressure Visibility Wind Dir Wind Speed Gust Speed Precip Events Conditions
12:15 AM 44.6 °F - 41.0 °F 87% 29.47 in 10.0 mi Calm Calm - N/A   Overcast
12:35 AM 44.6 °F - 39.2 °F 81% 29.47 in 6.0 mi Calm Calm - 0.02 in   Overcast
1:15 AM 44.6 °F - 41.0 °F 87% 29.45 in 6.0 mi Calm Calm - 0.03 in   Overcast
1:35 AM 44.6 °F - 41.0 °F 87% 29.45 in 8.0 mi Calm Calm - 0.05 in   Mostly Cloudy
1:55 AM 44.6 °F - 41.0 °F 87% 29.43 in 10.0 mi Calm Calm - 0.06 in   Overcast
2:15 AM 44.6 °F - 42.8 °F 93% 29.43 in 10.0 mi Calm Calm - N/A   Overcast
2:35 AM 44.6 °F - 42.8 °F 93% 29.44 in 10.0 mi Calm Calm - 0.01 in   Overcast
2:55 AM 44.6 °F - 41.0 °F 87% 29.44 in 10.0 mi Calm Calm - 0.01 in   Overcast
3:15 AM 44.6 °F - 42.8 °F 93% 29.42 in 10.0 mi Calm Calm - 0.01 in   Overcast
3:35 AM 44.6 °F - 42.8 °F 93% 29.41 in 9.0 mi Calm Calm - 0.02 in   Overcast
3:55 AM 46.4 °F - 42.8 °F 87% 29.41 in 10.0 mi Calm Calm - 0.02 in   Overcast
4:15 AM 46.4 °F - 42.8 °F 87% 29.41 in 10.0 mi Calm Calm - 0.01 in   Overcast
4:35 AM 46.4 °F 44.3 °F 42.8 °F 87% 29.41 in 10.0 mi South 4.6 mph - 0.01 in   Overcast
4:55 AM 46.4 °F 43.5 °F 42.8 °F 87% 29.40 in 10.0 mi South 5.8 mph - 0.01 in   Mostly Cloudy
5:15 AM 46.4 °F 43.5 °F 42.8 °F 87% 29.40 in 10.0 mi South 5.8 mph - N/A   Mostly Cloudy
5:35 AM 46.4 °F - 42.8 °F 87% 29.39 in 10.0 mi Calm Calm - N/A   Mostly Cloudy
5:55 AM 44.6 °F - 42.8 °F 93% 29.38 in 10.0 mi Calm Calm - N/A   Mostly Cloudy
6:15 AM 46.4 °F 45.2 °F 42.8 °F 87% 29.39 in 10.0 mi SW 3.5 mph - N/A   Mostly Cloudy
6:35 AM 46.4 °F 45.2 °F 42.8 °F 87% 29.39 in 10.0 mi South 3.5 mph - 0.01 in   Overcast
6:55 AM 46.4 °F - 42.8 °F 87% 29.40 in 8.0 mi Calm Calm - 0.04 in   Mostly Cloudy
7:15 AM 46.4 °F - 42.8 °F 87% 29.40 in 9.0 mi Calm Calm - 0.02 in   Overcast
7:35 AM 46.4 °F 42.4 °F 42.8 °F 87% 29.41 in 10.0 mi South 8.1 mph - 0.03 in   Overcast
7:55 AM 46.4 °F 41.5 °F 44.6 °F 93% 29.43 in 9.0 mi South 10.4 mph - 0.08 in   Overcast
8:15 AM 48.2 °F - 44.6 °F 87% 29.43 in 10.0 mi South 10.4 mph 18.4 mph 0.04 in   Overcast
8:35 AM 48.2 °F - 44.6 °F 87% 29.42 in 10.0 mi SSE 10.4 mph - 0.04 in   Mostly Cloudy
8:55 AM 48.2 °F - 44.6 °F 87% 29.43 in 10.0 mi South 9.2 mph 17.3 mph 0.04 in   Mostly Cloudy
9:15 AM 48.2 °F - 44.6 °F 87% 29.43 in 10.0 mi South 11.5 mph - 0.01 in   Overcast
9:35 AM 48.2 °F - 44.6 °F 87% 29.43 in 10.0 mi South 10.4 mph - 0.03 in   Overcast
9:55 AM 48.2 °F - 44.6 °F 87% 29.44 in 10.0 mi South 6.9 mph - 0.08 in   Overcast
10:15 AM 48.2 °F - 44.6 °F 87% 29.45 in 10.0 mi South 9.2 mph - 0.01 in   Overcast
10:35 AM 48.2 °F - 44.6 °F 87% 29.44 in 10.0 mi South 11.5 mph 17.3 mph 0.02 in   Overcast
10:55 AM 48.2 °F - 44.6 °F 87% 29.45 in 9.0 mi South 9.2 mph - 0.08 in   Overcast
11:15 AM 48.2 °F - 44.6 °F 87% 29.44 in 9.0 mi South 9.2 mph - 0.10 in   Mostly Cloudy
11:35 AM 48.2 °F - 44.6 °F 87% 29.44 in 7.0 mi SSW 10.4 mph - 0.19 in   Mostly Cloudy
11:55 AM 48.2 °F - 44.6 °F 87% 29.44 in 8.0 mi South 10.4 mph - 0.26 in   Mostly Cloudy
12:15 PM 50.0 °F - 46.4 °F 87% 29.43 in 10.0 mi South 8.1 mph - 0.03 in   Overcast
12:35 PM 50.0 °F - 46.4 °F 87% 29.44 in 10.0 mi South 10.4 mph - 0.07 in   Overcast
12:55 PM 50.0 °F - 44.6 °F 82% 29.44 in 9.0 mi South 10.4 mph - 0.12 in   Mostly Cloudy
1:15 PM 50.0 °F - 44.6 °F 82% 29.43 in 7.0 mi SSW 10.4 mph - 0.08 in   Overcast
1:35 PM 48.2 °F - 44.6 °F 87% 29.43 in 7.0 mi SSW 9.2 mph - 0.14 in   Overcast
1:55 PM 50.0 °F - 46.4 °F 87% 29.45 in 9.0 mi South 10.4 mph - 0.19 in   Overcast
2:15 PM 50.0 °F - 46.4 °F 87% 29.45 in 10.0 mi South 10.4 mph 16.1 mph 0.02 in   Overcast
2:35 PM 50.0 °F - 46.4 °F 87% 29.46 in 8.0 mi SSW 11.5 mph - 0.08 in   Overcast
2:55 PM 48.2 °F - 46.4 °F 93% 29.44 in 10.0 mi South 9.2 mph - 0.15 in   Overcast
3:15 PM 50.0 °F - 46.4 °F 87% 29.45 in 10.0 mi South 10.4 mph 18.4 mph 0.04 in   Overcast
3:35 PM 50.0 °F - 46.4 °F 87% 29.46 in 10.0 mi South 8.1 mph 16.1 mph 0.08 in   Mostly Cloudy
3:55 PM 50.0 °F - 46.4 °F 87% 29.46 in 9.0 mi South 12.7 mph - 0.12 in   Overcast
4:15 PM 50.0 °F - 46.4 °F 87% 29.45 in 10.0 mi South 12.7 mph 19.6 mph 0.06 in   Overcast
4:35 PM 48.2 °F - 44.6 °F 87% 29.46 in 8.0 mi South 16.1 mph 23.0 mph 0.21 in   Mostly Cloudy
4:55 PM 48.2 °F - 46.4 °F 93% 29.47 in 10.0 mi SSW 9.2 mph - 0.34 in   Overcast
5:15 PM 48.2 °F - 44.6 °F 87% 29.47 in 10.0 mi SSW 10.4 mph - 0.04 in   Mostly Cloudy
5:35 PM 48.2 °F - 44.6 °F 87% 29.46 in 10.0 mi SSW 13.8 mph 19.6 mph 0.07 in   Mostly Cloudy
5:55 PM 48.2 °F - 42.8 °F 82% 29.48 in 10.0 mi SSW 12.7 mph 17.3 mph 0.10 in   Overcast
6:15 PM 46.4 °F 42.4 °F 42.8 °F 87% 29.48 in 10.0 mi South 8.1 mph - 0.05 in   Overcast
6:35 PM 46.4 °F 41.9 °F 42.8 °F 87% 29.47 in 10.0 mi South 9.2 mph - 0.09 in   Overcast
6:55 PM 46.4 °F 42.9 °F 42.8 °F 87% 29.48 in 10.0 mi South 6.9 mph - 0.15 in   Overcast
7:15 PM 46.4 °F 45.2 °F 42.8 °F 87% 29.46 in 10.0 mi South 3.5 mph - 0.04 in   Overcast
7:35 PM 46.4 °F 45.2 °F 42.8 °F 87% 29.46 in 7.0 mi SSE 3.5 mph - 0.07 in   Overcast
7:55 PM 46.4 °F 44.3 °F 42.8 °F 87% 29.46 in 9.0 mi SSE 4.6 mph - 0.11 in   Overcast
8:15 PM 46.4 °F 44.3 °F 42.8 °F 87% 29.46 in 9.0 mi SSE 4.6 mph - 0.04 in   Mostly Cloudy
8:35 PM 46.4 °F 45.2 °F 42.8 °F 87% 29.45 in 8.0 mi SSE 3.5 mph - 0.08 in   Overcast
8:55 PM 46.4 °F 44.3 °F 42.8 °F 87% 29.45 in 10.0 mi SSE 4.6 mph - 0.10 in   Overcast
9:15 PM 46.4 °F 44.3 °F 42.8 °F 87% 29.44 in 10.0 mi SSE 4.6 mph - 0.01 in   Overcast
9:35 PM 46.4 °F - 42.8 °F 87% 29.42 in 8.0 mi Calm Calm - 0.02 in   Overcast
9:55 PM 46.4 °F - 42.8 °F 87% 29.42 in 5.0 mi Calm Calm - 0.07 in   Overcast
10:15 PM 46.4 °F - 42.8 °F 87% 29.42 in 3.0 mi Calm Calm - 0.17 in   Mostly Cloudy
10:35 PM 46.4 °F 42.4 °F 44.6 °F 93% 29.41 in 8.0 mi South 8.1 mph - 0.29 in   Overcast
10:55 PM 46.4 °F 40.7 °F 42.8 °F 87% 29.44 in 9.0 mi South 12.7 mph 21.9 mph 0.44 in   Overcast
11:15 PM 46.4 °F 41.1 °F 42.8 °F 87% 29.44 in 10.0 mi SSW 11.5 mph - 0.06 in   Overcast
11:35 PM 46.4 °F 42.9 °F 42.8 °F 87% 29.43 in 9.0 mi SSW 6.9 mph - 0.08 in   Overcast
11:55 PM 46.4 °F 44.3 °F 42.8 °F 87% 29.44 in 10.0 mi SSW 4.6 mph - 0.08 in   Overcast